WetterOnline ( https://www.wetteronline.at )

Wetter aktuell Regen

Aktuelles Wetter: Zwiesel (613m)

6-stündlich | Neueste Meldungen
Ortszeit Temperatur Wetter
Do, 12.12. 13:00 0.6° C bedeckt
Do, 12.12. 7:00 -1.6° C leichter Schneefall
Do, 12.12. 1:00 -1.9° C bedeckt
Mi, 11.12. 19:00 -2.8° C bedeckt
Mi, 11.12. 13:00 3.0° C wolkenlos
Mi, 11.12. 7:00 -6.2° C wolkenlos
Mi, 11.12. 1:00 -3.6° C Nebel
Di, 10.12. 19:00 0.1° C bedeckt
Ortszeit Temperatur Wetter
Do, 12.12. 15:30 0.4° C bedeckt
Do, 12.12. 15:20 0.4° C bedeckt
Do, 12.12. 15:10 0.3° C bedeckt
Do, 12.12. 15:00 0.5° C bewölkt
Do, 12.12. 14:50 0.5° C bewölkt
Do, 12.12. 14:40 0.6° C bewölkt
Do, 12.12. 14:30 0.7° C bewölkt
Do, 12.12. 14:00 0.9° C bewölkt
Do, 12.12. 13:30 0.7° C bedeckt
Do, 12.12. 13:00 0.6° C bedeckt
Do, 12.12. 12:30 0.4° C bedeckt
Ortszeit Relative Feuchte Sichtweite
Do, 12.12. 13:00 91% 7 km
Do, 12.12. 7:00 96% 2.7 km
Do, 12.12. 1:00 89% 35 km
Mi, 11.12. 19:00 88% 35 km
Mi, 11.12. 13:00 53% >70 km
Mi, 11.12. 7:00 93% 30 km
Mi, 11.12. 1:00 96% 0.5 km
Di, 10.12. 19:00 90% 27 km
Ortszeit Relative Feuchte Sichtweite
Do, 12.12. 15:30 94% 7 km
Do, 12.12. 15:20 94% -
Do, 12.12. 15:10 95% -
Do, 12.12. 15:00 94% 7 km
Do, 12.12. 14:50 94% -
Do, 12.12. 14:40 92% -
Do, 12.12. 14:30 90% 15 km
Do, 12.12. 14:00 90% 13 km
Do, 12.12. 13:30 90% 10 km
Do, 12.12. 13:00 91% 7 km
Do, 12.12. 12:30 91% 8 km
Ortszeit Niederschlagsmenge Niederschlagsart
Do, 12.12. 13:00 0.3 l/m2 in 6 Std. Schnee, Sprühregen
Do, 12.12. 7:00 0.5 l/m2 in 12 Std. Schnee, Regen
Do, 12.12. 1:00 0.0 l/m2 in 6 Std. -
Mi, 11.12. 19:00 0.0 l/m2 in 12 Std. -
Mi, 11.12. 13:00 0.0 l/m2 in 6 Std. -
Mi, 11.12. 7:00 0.0 l/m2 in 12 Std. -
Mi, 11.12. 1:00 0.0 l/m2 in 6 Std. -
Di, 10.12. 19:00 0.8 l/m2 in 12 Std. Schnee, Regen
Ortszeit Niederschlagsmenge Niederschlagsart
Do, 12.12. 15:30 0.0 l/m2 in 1 Std. -
Do, 12.12. 15:20 keine Meldung -
Do, 12.12. 15:10 keine Meldung -
Do, 12.12. 15:00 0.0 l/m2 in 1 Std. -
Do, 12.12. 14:50 keine Meldung -
Do, 12.12. 14:40 keine Meldung -
Do, 12.12. 14:30 0.0 l/m2 in 1 Std. -
Do, 12.12. 14:00 0.0 l/m2 in 1 Std. -
Do, 12.12. 13:30 0.0 l/m2 in 1 Std. -
Do, 12.12. 13:00 0.0 l/m2 in 1 Std. Schnee, Sprühregen
Do, 12.12. 12:30 0.0 l/m2 in 1 Std. -
Ortszeit Stärke Spitze Richtung
km/h Bft. km/h Grad Sektor
Do, 12.12. 13:00 4 1 7 250° W
Do, 12.12. 7:00 0 0 7 - -
Do, 12.12. 1:00 2 1 11 10° N
Mi, 11.12. 19:00 7 2 11 130° SO
Mi, 11.12. 13:00 2 1 6 230° SW
Mi, 11.12. 7:00 4 1 7 180° S
Mi, 11.12. 1:00 4 1 11 190° S
Di, 10.12. 19:00 6 1 22 120° SO
Ortszeit Stärke Spitze Richtung
km/h Bft. km/h Grad Sektor
Do, 12.12. 15:30 4 1 4 240° SW
Do, 12.12. 15:20 4 1 - 240° SW
Do, 12.12. 15:10 4 1 - 270° W
Do, 12.12. 15:00 2 1 6 310° NW
Do, 12.12. 14:50 2 1 - 310° NW
Do, 12.12. 14:40 2 1 - 150° SO
Do, 12.12. 14:30 4 1 7 130° SO
Do, 12.12. 14:00 4 1 7 120° SO
Do, 12.12. 13:30 0 0 4 - -
Do, 12.12. 13:00 4 1 7 250° W
Do, 12.12. 12:30 4 1 4 120° SO
Ortszeit Untergrenze Bedeckung Gattung
total tief tief mittel hoch
Do, 12.12. 13:00 210 m 8/8 8/8 - - -
Do, 12.12. 7:00 240 m 8/8 8/8 - - -
Do, 12.12. 1:00 690 m 8/8 8/8 - - -
Mi, 11.12. 19:00 4800 m 8/8 8/8 - - -
Mi, 11.12. 13:00 - 0/8 0/8 - - -
Mi, 11.12. 7:00 - 0/8 0/8 - - -
Mi, 11.12. 1:00 <30 m 2/8 0/8 - - -
Di, 10.12. 19:00 1350 m 8/8 8/8 - - -
Ortszeit Bedeckungsgrad in Achtel und Wolkenuntergrenze
Do, 12.12. 15:30 3(180m) 7(390m) 8(600m)
Do, 12.12. 15:20 3(180m) 7(390m) 8(600m)
Do, 12.12. 15:10 5(360m) 8(600m)
Do, 12.12. 15:00 3(480m) 7(690m)
Do, 12.12. 14:50 3(480m) 7(690m)
Do, 12.12. 14:40 1(420m) 7(690m)
Do, 12.12. 14:30 2(330m) 7(660m)
Do, 12.12. 14:00 7(240m) 7(360m) 8(690m)
Do, 12.12. 13:30 7(210m) 8(330m)
Do, 12.12. 13:00 8(210m)
Do, 12.12. 12:30 8(180m)
Ortszeit Luftdruck NN (hPa) Tendenz (hPa in 3 Std.)
Do, 12.12. 13:00 1008 - 1,1
Do, 12.12. 7:00 1009 + 0,2
Do, 12.12. 1:00 1010 - 1,3
Mi, 11.12. 19:00 1012 - 1,1
Mi, 11.12. 13:00 1014 - 3,6
Mi, 11.12. 7:00 1022 - 2,1
Mi, 11.12. 1:00 1027 - 1,1
Di, 10.12. 19:00 1028 - 0,2
Ortszeit Luftdruck NN (hPa) Tendenz (hPa in 3 Std.)
Do, 12.12. 15:30 1006 - 1,5
Do, 12.12. 15:20 1006 keine Meldung
Do, 12.12. 15:10 1006 keine Meldung
Do, 12.12. 15:00 1006 - 1,7
Do, 12.12. 14:50 1006 keine Meldung
Do, 12.12. 14:40 1006 keine Meldung
Do, 12.12. 14:30 1006 - 1,7
Do, 12.12. 14:00 1007 - 1,6
Do, 12.12. 13:30 1007 - 1,2
Do, 12.12. 13:00 1008 - 1,1
Do, 12.12. 12:30 1008 - 1,0
Ortszeit Schneehöhe (cm)
Do, 12.12. 13:00 -
Do, 12.12. 7:00 0
Do, 12.12. 1:00 0
Mi, 11.12. 19:00 0
Mi, 11.12. 13:00 0
Mi, 11.12. 7:00 0
Mi, 11.12. 1:00 0
Di, 10.12. 19:00 0
Ortszeit Schneehöhe (cm)
Do, 12.12. 15:30 0
Do, 12.12. 15:20 0
Do, 12.12. 15:10 0
Do, 12.12. 15:00 0
Do, 12.12. 14:50 0
Do, 12.12. 14:40 0
Do, 12.12. 14:30 0
Do, 12.12. 14:00 -
Do, 12.12. 13:30 -
Do, 12.12. 13:00 -
Do, 12.12. 12:30 -
Link zu dieser Seite / Seite empfehlen

Das Wetter in ...